Flag for Italy Weather past 2 weeks in Bologna, Italy

Now
93 °F

Passing clouds.


Feels Like: 93 °F
Forecast: 67 / 82 °F
Wind: 9 mph from Southeast

Location: Bologna / Borgo Panigale

Current Time: Jul 29, 2015 at 6:22:06 PM

Latest Report: Jul 29, 2015 at 5:50 PM


Visibility: N/A

Pressure: 29.62 "Hg

Humidity: 32%

Dew point: 59 °F

Location of BolognaLocation

Historic Weather in Bologna — Graph

°F

Bologna temperature yesterday

Maximum temperature yesterday: 93 °F (at 3:50 PM)
Minimum temperature yesterday: 66 °F (at 5:20 AM)
Average temperature yesterday: 81 °F

Past Weeks' High & Low Weather Summary

 TemperatureHumidityPressure
High100 °F (Jul 22, 4:20 PM)94% (Jul 16, 2:50 AM)30.04 "Hg (Jul 16, 2:50 AM)
Low66 °F (Jul 28, 5:20 AM)21% (Jul 28, 7:50 PM)29.59 "Hg (Jul 27, 4:50 PM)
Average84 °F51%29.85 "Hg
* Reported Jul 14 4:20 PM — Jul 29 4:50 PM, Bologna, Weather by CustomWeather, © 2015

Note: Actual official high and low records may vary slightly from our data, if they occured in-between our weather recording intervals... More about our weather records

Advertising

Bologna weather history for previous 24 hours

 ConditionsComfort  
Time TempWeatherWind HumidityBarometerVisibility
4:50 PM
Wed, Jul 29
93 °FPassing clouds.14 mph32%29.62 "HgN/A
4:20 PM95 °FPassing clouds.9 mph30%29.62 "HgN/A
3:50 PM93 °FPassing clouds.5 mph32%29.65 "HgN/A
3:20 PM93 °FPassing clouds.2 mph34%29.65 "HgN/A
2:50 PM91 °FPassing clouds.8 mph36%29.65 "HgN/A
2:20 PM93 °FPassing clouds.3 mph34%29.68 "HgN/A
1:50 PM90 °FSunny.3 mph38%29.68 "Hg10 mi
1:20 PM90 °FSunny.5 mph38%29.68 "Hg10 mi
12:50 PM90 °FSunny.3 mph38%29.68 "Hg10 mi
12:20 PM88 °FSunny.5 mph38%29.71 "Hg10 mi
11:50 AM88 °FPassing clouds.5 mph38%29.71 "HgN/A
11:20 AM88 °FSunny.3 mph38%29.71 "Hg10 mi
10:50 AM86 °FSunny.3 mph38%29.71 "Hg10 mi
10:20 AM84 °FPassing clouds.5 mph43%29.71 "HgN/A
9:50 AM84 °FPassing clouds.7 mph43%29.71 "HgN/A
9:20 AM82 °FSunny.8 mph45%29.74 "Hg10 mi
8:50 AM81 °FPassing clouds.6 mph48%29.71 "HgN/A
8:20 AM77 °FPassing clouds.5 mph54%29.74 "HgN/A
7:50 AM77 °FSunny.5 mph47%29.74 "Hg10 mi
7:20 AM73 °FPassing clouds.5 mph50%29.74 "HgN/A
6:50 AM70 °FPassing clouds.6 mph53%29.74 "HgN/A
5:50 AM68 °FPassing clouds.5 mph60%29.71 "HgN/A
4:50 AM70 °FClear.5 mph57%29.71 "Hg10 mi
4:20 AM72 °FPassing clouds.6 mph61%29.68 "HgN/A
3:50 AM73 °FClear.7 mph57%29.71 "Hg10 mi
3:20 AM73 °FClear.2 mph57%29.71 "Hg10 mi
2:20 AM75 °FPassing clouds.10 mph54%29.68 "HgN/A
1:50 AM75 °FClear.12 mph50%29.68 "Hg10 mi
1:20 AM75 °FClear.9 mph47%29.71 "Hg10 mi
12:50 AM75 °FClear.10 mph47%29.71 "Hg10 mi
11:20 PM
Tue, Jul 28
79 °FClear.14 mph32%29.71 "Hg10 mi
10:50 PM79 °FClear.13 mph30%29.68 "Hg10 mi
10:20 PM81 °FClear.13 mph24%29.68 "Hg10 mi
9:50 PM82 °FClear.15 mph21%29.68 "Hg10 mi
9:20 PM82 °FSunny.15 mph21%29.68 "Hg10 mi
8:50 PM84 °FPassing clouds.13 mph25%29.68 "HgN/A
8:20 PM86 °FPassing clouds.12 mph25%29.65 "HgN/A
7:50 PM88 °FPassing clouds.16 mph21%29.65 "HgN/A
7:20 PM90 °FPassing clouds.14 mph24%29.65 "HgN/A
6:50 PM91 °FPassing clouds.15 mph24%29.65 "HgN/A
6:20 PM91 °FPassing clouds.8 mph34%29.65 "HgN/A
Weather by CustomWeather, © 2015

See weather overviewHow to use our weather pages